Location: 22
(39.7117°N, 89.5929°W)
Time: 19:17:42
(UTC-05:00)

Gurwin Techsat 1B - Pass Details

Date: 08 April 2023
Orbit: 811 x 813 km, 98.9° (Epoch: 06 June)

Event Time Altitude Azimuth Distance (km) Brightness Sun altitude
Rises 04:25:55 0° 7° (N) 3,346 12.4 -23.4°
Reaches altitude 10° 04:28:20 10° 2° (N) 2,410 11.5 -23.0°
Maximum altitude 04:33:26 48° 290° (WNW) 1,053 8.9 -22.1°
Enters shadow 04:34:05 46° 267° (W) 1,089 8.8 -22.0°
